TimeBST,TemperatureF,Dew PointF,Humidity,Sea Level PressureIn,VisibilityMPH,Wind Direction,Wind SpeedMPH,Gust SpeedMPH,PrecipitationIn,Events,Conditions,WindDirDegrees,DateUTC
12:20 AM,51.8,44.6,76,29.89,-9999.0,WSW,6.9,-,N/A,,Clear,240,2013-09-04 23:20:00
12:50 AM,51.8,44.6,76,29.89,-9999.0,Variable,3.5,-,N/A,,Clear,0,2013-09-04 23:50:00
1:20 AM,53.6,46.4,77,29.89,-9999.0,NNE,3.5,-,N/A,,Clear,30,2013-09-05 00:20:00
1:50 AM,55.4,48.2,77,29.89,-9999.0,Variable,2.3,-,N/A,,Clear,0,2013-09-05 00:50:00
2:20 AM,53.6,48.2,82,29.89,-9999.0,Variable,2.3,-,N/A,,Clear,0,2013-09-05 01:20:00
2:50 AM,53.6,48.2,82,29.89,-9999.0,Variable,2.3,-,N/A,,Clear,0,2013-09-05 01:50:00
3:20 AM,53.6,48.2,82,29.86,-9999.0,Variable,3.5,-,N/A,,Clear,0,2013-09-05 02:20:00
3:50 AM,55.4,50.0,82,29.86,-9999.0,West,4.6,-,N/A,,Clear,270,2013-09-05 02:50:00
4:20 AM,55.4,50.0,82,29.86,6.2,West,4.6,-,N/A,,Partly Cloudy,260,2013-09-05 03:20:00
4:50 AM,55.4,51.8,88,29.86,6.2,WSW,8.1,-,N/A,,Mostly Cloudy,240,2013-09-05 03:50:00
5:20 AM,57.2,51.8,82,29.86,6.2,WSW,9.2,-,N/A,,Overcast,240,2013-09-05 04:20:00
5:50 AM,57.2,53.6,88,29.89,6.2,WSW,10.4,-,N/A,,Mostly Cloudy,250,2013-09-05 04:50:00
6:20 AM,55.4,53.6,94,29.89,6.2,SW,10.4,-,N/A,,Mostly Cloudy,230,2013-09-05 05:20:00
6:50 AM,55.4,51.8,88,29.89,6.2,SW,6.9,-,N/A,,Overcast,220,2013-09-05 05:50:00
7:20 AM,55.4,51.8,88,29.89,6.2,West,9.2,-,N/A,,Mostly Cloudy,260,2013-09-05 06:20:00
7:50 AM,55.4,50.0,82,29.89,6.2,WSW,8.1,-,N/A,,Mostly Cloudy,250,2013-09-05 06:50:00
8:20 AM,55.4,50.0,82,29.89,6.2,West,10.4,-,N/A,,Scattered Clouds,260,2013-09-05 07:20:00
8:50 AM,57.2,50.0,77,29.89,6.2,WSW,9.2,-,N/A,,Mostly Cloudy,250,2013-09-05 07:50:00
9:20 AM,55.4,48.2,77,29.92,6.2,WSW,9.2,-,N/A,,Mostly Cloudy,250,2013-09-05 08:20:00
9:50 AM,57.2,48.2,72,29.92,6.2,WSW,10.4,-,N/A,,Mostly Cloudy,240,2013-09-05 08:50:00
10:20 AM,57.2,46.4,67,29.92,6.2,West,8.1,-,N/A,,Mostly Cloudy,260,2013-09-05 09:20:00
10:50 AM,57.2,46.4,67,29.92,6.2,West,8.1,-,N/A,,Mostly Cloudy,260,2013-09-05 09:50:00
11:20 AM,59.0,46.4,63,29.89,6.2,West,8.1,-,N/A,,Mostly Cloudy,260,2013-09-05 10:20:00
11:50 AM,59.0,44.6,59,29.89,6.2,West,8.1,-,N/A,,Scattered Clouds,260,2013-09-05 10:50:00
12:20 PM,60.8,44.6,55,29.89,6.2,West,9.2,-,N/A,,Scattered Clouds,260,2013-09-05 11:20:00
12:50 PM,60.8,44.6,55,29.89,6.2,West,8.1,-,N/A,,Mostly Cloudy,260,2013-09-05 11:50:00
1:20 PM,62.6,44.6,52,29.89,6.2,West,9.2,-,N/A,,Scattered Clouds,270,2013-09-05 12:20:00
1:50 PM,64.4,42.8,45,29.89,6.2,West,10.4,-,N/A,,Scattered Clouds,280,2013-09-05 12:50:00
2:20 PM,62.6,42.8,48,29.89,6.2,West,6.9,-,N/A,,Mostly Cloudy,280,2013-09-05 13:20:00
2:50 PM,62.6,41.0,45,29.89,6.2,WNW,6.9,-,N/A,,Scattered Clouds,290,2013-09-05 13:50:00
3:20 PM,64.4,41.0,42,29.89,-9999.0,West,8.1,-,N/A,,Clear,280,2013-09-05 14:20:00
3:50 PM,62.6,44.6,52,29.89,-9999.0,NW,8.1,-,N/A,,Clear,310,2013-09-05 14:50:00
4:20 PM,62.6,42.8,48,29.86,6.2,NNW,10.4,-,N/A,,Partly Cloudy,330,2013-09-05 15:20:00
4:50 PM,62.6,42.8,48,29.86,6.2,NW,8.1,-,N/A,,Partly Cloudy,320,2013-09-05 15:50:00
5:20 PM,60.8,41.0,48,29.86,-9999.0,NW,4.6,-,N/A,,Clear,310,2013-09-05 16:20:00
5:50 PM,62.6,41.0,45,29.86,-9999.0,West,9.2,-,N/A,,Clear,260,2013-09-05 16:50:00
6:20 PM,60.8,41.0,48,29.86,-9999.0,West,8.1,-,N/A,,Clear,260,2013-09-05 17:20:00
6:50 PM,60.8,41.0,48,29.89,-9999.0,West,6.9,-,N/A,,Clear,270,2013-09-05 17:50:00
7:20 PM,59.0,41.0,51,29.89,-9999.0,West,5.8,-,N/A,,Clear,270,2013-09-05 18:20:00
7:50 PM,53.6,41.0,62,29.89,-9999.0,West,4.6,-,N/A,,Clear,260,2013-09-05 18:50:00
8:20 PM,51.8,46.4,82,29.89,-9999.0,Variable,2.3,-,N/A,,Clear,0,2013-09-05 19:20:00
8:50 PM,50.0,48.2,94,29.92,-9999.0,Variable,2.3,-,N/A,,Clear,0,2013-09-05 19:50:00
9:20 PM,50.0,48.2,94,29.92,-9999.0,NW,2.3,-,N/A,,Clear,310,2013-09-05 20:20:00
9:50 PM,48.2,46.4,93,29.92,-9999.0,West,3.5,-,N/A,,Clear,260,2013-09-05 20:50:00
10:20 PM,46.4,44.6,93,29.92,-9999.0,WSW,4.6,-,N/A,,Clear,250,2013-09-05 21:20:00
10:50 PM,44.6,42.8,93,29.92,6.2,Variable,2.3,-,N/A,,Scattered Clouds,0,2013-09-05 21:50:00
11:20 PM,46.4,41.0,81,29.92,6.2,WSW,4.6,-,N/A,,Scattered Clouds,250,2013-09-05 22:20:00
11:50 PM,46.4,42.8,87,29.92,6.2,West,3.5,-,N/A,,Scattered Clouds,270,2013-09-05 22:50:00